ARIANE 44L DEB

Satellite information

Favourite Embed

Satellite Type and Status

DEBRISIN ORBIT

Key statistics

Satellite ARIANE 44L DEB at a glance.

Uptime

12530

Days in orbit

Revolutions

≈ 3.0

Per day

Orbit

MEO

Medium Earth Orbit

Inclination

6.7

Latest

Satellite identification and parameters

Extended collection of information and parameters for ARIANE 44L DEB.

Object identification

Identified? True

Debris? True

Object name: ARIANE 44L DEB

International designator: 1991-003P

Object number (NORAD): 28574

Object ID (CCSDS): 28574

Country: FRANCE (FR)

Current information (Y/N): Y

RCS size: MEDIUM

Orbital parameters

Period: 472.415 minutes

Inclination: 6.7434 deg

SMA: 20092.893 km

Apoapsis: 26951.978 km

Periapsis: 477.538 km

RAAN: 308.1021 deg

Eccentricy: 0.6588011

Argument of periapsis: 303.7576 deg

Mean anomaly: 9.8311 deg

Mean motion: 3.04816903 rev/day

Mean motion (dot): 0.00001062 rev/day2

B* drag term: 0.0039166 1/REarth

Two-line elements (TLE)

Creation date: May 6, 2025, 3:54 a.m.

Reference frame: TEME

Reference center: EARTH

Epoch: May 4, 2025, 11:04 p.m. UTC

TLE line 0: 0 ARIANE 44L DEB

TLE line 1: 1 28574U 91003P 25124.96171592 .00001062 00000-0 39166-2 0 9999

TLE line 2: 2 28574 6.7434 308.1021 6588011 303.7576 9.8311 3.04816903127418

Live tracking on map

Real-time ground track for satellite ARIANE 44L DEB.

In-orbit conjunctions

A list of the most updated potential collisions computed for object ARIANE 44L DEB.

Target Orbit TCA Probability of collision Miss distance Type
ARIANE 5 DEB (SYLDA) MEO 2024-06-11 11:58:10 TBA 2780.0 (m) DEBRIS

Associated space launch

Italy's first operational communications satellite was launched 15 January 1991 by an Ariane-44L H10 booster. Developed by a contractor team led by Alenia Spazio, Italsat carries ten active transponders plus five spares for 30/20 GHz and 50/40 GHz links with a capacity of 12,000 telephone circuits.

ARIANE 44L DEB was lifted into orbit during the mission ‘Ariane 44L | Italsat 1’, on board a Ariane 44L space rocket.

The launch took place on Jan. 15, 1991, 11:10 p.m. from Ariane Launch Area 2.

For more information about the launch, click the button.

Launch to space Ariane 44L | Italsat 1
Ariane 44L | Italsat 1

Agency: N/A

Status: Launch Successful

Launch date: Jan. 15, 1991, 11:10 p.m. UTC

Rocket: Ariane 44L

Launch pad: Ariane Launch Area 2

Location: Guiana Space Centre, French Guiana

...

Latest news about this satellite

There are no fresh news available about this satellite. Check back as we update our databases every day.


Newsletter sign-up

Weekly statistics, charts and insights to help you stay on top of the space industry.